#�ϑ�����,���ϕ���,���ϕ���,�ő啗��,�ő啗����������,�ő�u�ԕ���,�ő�u�ԕ�����������
#(�N����),(m/s)   ,(16����),(m/s)   ,(16����)        ,(m/s)       ,(16����)            
2016/4/28 0:01,2.3,2,2.4,2,3.6,2
2016/4/28 0:02,2.3,2,2.4,2,3.2,2
2016/4/28 0:03,2.3,2,2.3,2,4.4,2
2016/4/28 0:04,2.2,2,2.3,2,4.5,2
2016/4/28 0:05,2.2,2,2.2,2,3.7,2
2016/4/28 0:06,2.2,2,2.2,2,3.3,2
2016/4/28 0:07,2.2,2,2.2,2,4.2,2
2016/4/28 0:08,2.1,2,2.2,2,3,2
2016/4/28 0:09,2.1,2,2.1,2,3.2,1
2016/4/28 0:10,2.2,2,2.2,2,5,1
2016/4/28 0:11,2.3,2,2.3,2,3.8,4
2016/4/28 0:12,2.2,2,2.2,2,2.7,16
2016/4/28 0:13,2.1,2,2.2,2,2.5,2
2016/4/28 0:14,2,2,2.1,2,3.2,3
2016/4/28 0:15,2,2,2,2,3.7,3
2016/4/28 0:16,2.1,2,2.1,2,4.3,2
2016/4/28 0:17,2.1,2,2.1,2,4.4,2
2016/4/28 0:18,2.1,2,2.1,2,3.8,3
2016/4/28 0:19,2.3,2,2.3,2,4.9,2
2016/4/28 0:20,2.3,2,2.3,2,6.7,2
2016/4/28 0:21,2.4,2,2.4,2,6.1,1
2016/4/28 0:22,2.5,2,2.5,2,4.7,2
2016/4/28 0:23,2.7,2,2.7,2,5,2
2016/4/28 0:24,3,2,3,2,6.7,2
2016/4/28 0:25,3,2,3,2,5.1,2
2016/4/28 0:26,3,2,3,2,3.8,3
2016/4/28 0:27,3.1,2,3.1,2,5.1,2
2016/4/28 0:28,3.1,2,3.1,2,3.7,3
2016/4/28 0:29,3,2,3.1,2,3.8,2
2016/4/28 0:30,2.9,2,3,2,3.5,1
2016/4/28 0:31,2.8,2,2.9,2,3.6,1
2016/4/28 0:32,2.8,2,2.8,2,4.1,2
2016/4/28 0:33,2.6,2,2.7,2,3.5,1
2016/4/28 0:34,2.4,2,2.6,2,2.7,16
2016/4/28 0:35,2.4,2,2.4,2,4.3,3
2016/4/28 0:36,2.3,2,2.4,2,3.8,3
2016/4/28 0:37,2.2,2,2.3,2,3.1,1
2016/4/28 0:38,2.1,2,2.2,2,2.4,3
2016/4/28 0:39,2,2,2.1,2,3.3,3
2016/4/28 0:40,2.2,2,2.2,2,4.8,3
2016/4/28 0:41,2.3,2,2.3,2,4.5,3
2016/4/28 0:42,2.3,3,2.3,2,3.8,3
2016/4/28 0:43,2.4,3,2.4,2,3.7,3
2016/4/28 0:44,2.6,3,2.6,3,3.5,3
2016/4/28 0:45,2.5,3,2.6,3,3.2,3
2016/4/28 0:46,2.5,3,2.5,3,3.3,3
2016/4/28 0:47,2.6,3,2.6,3,3.9,3
2016/4/28 0:48,2.8,3,2.8,3,6.2,3
2016/4/28 0:49,2.9,3,2.9,3,3.9,3
2016/4/28 0:50,2.8,3,2.9,3,4.4,3
2016/4/28 0:51,2.6,3,2.7,3,4.3,4
2016/4/28 0:52,2.7,3,2.7,3,4.1,3
2016/4/28 0:53,2.6,3,2.7,3,3.8,3
2016/4/28 0:54,2.6,3,2.6,3,3.6,2
2016/4/28 0:55,2.6,2,2.6,3,3.8,3
2016/4/28 0:56,2.5,2,2.6,3,2.6,1
2016/4/28 0:57,2.4,2,2.5,3,2,1
2016/4/28 0:58,2.3,2,2.4,3,3.6,3
2016/4/28 0:59,2.1,2,2.3,3,3.2,4
2016/4/28 1:00,2,2,2.1,3,2.1,1
2016/4/28 1:01,1.9,2,2.1,3,1.8,16
2016/4/28 1:02,1.7,2,1.9,3,2.1,16
2016/4/28 1:03,1.6,2,1.7,3,2.1,16
2016/4/28 1:04,1.5,1,1.6,3,2.1,2
2016/4/28 1:05,1.5,1,1.6,2,2.5,2
2016/4/28 1:06,1.5,1,1.5,2,2.5,16
2016/4/28 1:07,1.5,1,1.5,2,2,1
2016/4/28 1:08,1.4,1,1.5,2,2,1
2016/4/28 1:09,1.4,1,1.4,2,2,1
2016/4/28 1:10,1.4,1,1.4,2,1.9,3
2016/4/28 1:11,1.3,1,1.4,2,1.6,3
2016/4/28 1:12,1.2,1,1.3,2,0.9,3
2016/4/28 1:13,1.2,2,1.2,1,1.3,4
2016/4/28 1:14,1.2,2,1.2,1,1.8,2
2016/4/28 1:15,1.1,2,1.2,1,1.4,2
2016/4/28 1:16,1,2,1,1,1.3,3
2016/4/28 1:17,0.9,2,1,1,1,3
2016/4/28 1:18,0.8,2,0.9,1,0.5,3
2016/4/28 1:19,0.7,2,0.8,1,0.1,2
2016/4/28 1:20,0.6,2,0.7,1,0.3,2
2016/4/28 1:21,0.5,2,0.5,1,1.9,3
2016/4/28 1:22,0.6,2,0.6,1,2,3
2016/4/28 1:23,0.6,2,0.6,2,1.3,1
2016/4/28 1:24,0.7,2,0.7,2,1.9,3
2016/4/28 1:25,0.7,2,0.7,2,1.8,16
2016/4/28 1:26,0.8,2,0.8,2,1.9,1
2016/4/28 1:27,0.8,2,0.8,2,2.2,2
2016/4/28 1:28,1,2,1,2,3,2
2016/4/28 1:29,1.2,2,1.2,2,2.9,3
2016/4/28 1:30,1.4,2,1.4,2,3.3,2
2016/4/28 1:31,1.5,2,1.5,2,3.3,3
2016/4/28 1:32,1.7,2,1.7,2,4.2,3
2016/4/28 1:33,1.9,2,1.9,2,4.3,3
2016/4/28 1:34,2,2,2,2,2.4,3
2016/4/28 1:35,2,3,2,2,2.7,4
2016/4/28 1:36,2.1,3,2.1,3,2.4,3
2016/4/28 1:37,2.1,3,2.1,3,3,4
2016/4/28 1:38,2.2,3,2.2,3,3.3,4
2016/4/28 1:39,2.2,3,2.2,3,3,4
2016/4/28 1:40,2.2,4,2.2,3,3.2,3
2016/4/28 1:41,2.1,4,2.2,3,2.6,3
2016/4/28 1:42,2,4,2.1,3,3.1,3
2016/4/28 1:43,1.8,3,2,3,2,4
2016/4/28 1:44,1.8,4,1.8,3,3.2,3
2016/4/28 1:45,1.8,3,1.8,3,1.9,4
2016/4/28 1:46,1.8,3,1.8,3,2.4,2
2016/4/28 1:47,1.8,3,1.8,3,2.5,3
2016/4/28 1:48,1.6,3,1.7,3,2,2
2016/4/28 1:49,1.5,3,1.6,3,1.8,1
2016/4/28 1:50,1.5,2,1.5,4,2.6,2
2016/4/28 1:51,1.5,2,1.5,4,2.4,3
2016/4/28 1:52,1.5,2,1.5,4,3,2
2016/4/28 1:53,1.6,2,1.6,4,3.2,2
2016/4/28 1:54,1.7,2,1.7,3,3.8,2
2016/4/28 1:55,1.8,2,1.8,3,3.1,1
2016/4/28 1:56,1.8,2,1.8,3,3.1,3
2016/4/28 1:57,1.9,2,1.9,2,4.2,4
2016/4/28 1:58,2,2,2,2,4.3,2
2016/4/28 1:59,2.2,2,2.2,2,4.3,3
2016/4/28 2:00,2.3,2,2.3,2,3.8,2
2016/4/28 2:01,2.4,2,2.4,2,3.2,2
2016/4/28 2:02,2.5,2,2.5,2,5.1,3
2016/4/28 2:03,2.5,2,2.5,2,3,2
2016/4/28 2:04,2.4,2,2.5,2,3.7,3
2016/4/28 2:05,2.4,2,2.5,2,3.6,3
2016/4/28 2:06,2.4,2,2.4,2,4.4,3
2016/4/28 2:07,2.5,2,2.5,2,3.7,3
2016/4/28 2:08,2.4,2,2.4,2,2.5,16
2016/4/28 2:09,2.3,2,2.4,2,3,2
2016/4/28 2:10,2.1,2,2.3,2,2.6,1
2016/4/28 2:11,2,2,2.1,2,2.2,15
2016/4/28 2:12,1.9,2,2,2,2.5,1
2016/4/28 2:13,1.9,1,1.9,2,2.2,16
2016/4/28 2:14,1.9,1,2,2,2.4,16
2016/4/28 2:15,1.8,1,1.9,2,2.5,16
2016/4/28 2:16,1.8,1,1.9,2,2.9,16
2016/4/28 2:17,1.7,16,1.8,2,3,16
2016/4/28 2:18,1.7,16,1.7,2,1.9,16
2016/4/28 2:19,1.6,16,1.6,2,1.5,1
2016/4/28 2:20,1.4,16,1.5,2,1.1,16
2016/4/28 2:21,1.4,16,1.4,2,1.5,2
2016/4/28 2:22,1.3,1,1.4,1,1,1
2016/4/28 2:23,1.1,1,1.3,1,0.3,16
2016/4/28 2:24,1,16,1.1,1,0.6,16
2016/4/28 2:25,0.8,16,0.9,1,0.3,14
2016/4/28 2:26,0.6,16,0.8,1,0.1,13
2016/4/28 2:27,0.4,16,0.6,16,0.9,15
2016/4/28 2:28,0.4,16,0.4,16,0.8,15
2016/4/28 2:29,0.4,16,0.4,16,1.5,16
2016/4/28 2:30,0.4,16,0.4,16,1.3,16
2016/4/28 2:31,0.4,15,0.4,16,1.3,16
2016/4/28 2:32,0.4,15,0.4,1,1,3
2016/4/28 2:33,0.4,16,0.4,1,0.6,3
2016/4/28 2:34,0.4,16,0.4,16,0.1,16
2016/4/28 2:35,0.4,16,0.4,16,0.4,1
2016/4/28 2:36,0.4,1,0.4,16,0.6,3
2016/4/28 2:37,0.4,1,0.4,16,0.8,1
2016/4/28 2:38,0.4,1,0.4,16,0.6,3
2016/4/28 2:39,0.4,1,0.4,16,1.4,3
2016/4/28 2:40,0.5,2,0.5,1,1.4,3
2016/4/28 2:41,0.5,2,0.5,1,1.8,3
2016/4/28 2:42,0.6,2,0.6,2,2,3
2016/4/28 2:43,0.8,2,0.8,2,2,3
2016/4/28 2:44,0.9,3,0.9,3,1.9,4
2016/4/28 2:45,1,3,1,3,1.4,3
2016/4/28 2:46,1.1,3,1.1,3,1.8,3
2016/4/28 2:47,1.1,3,1.1,3,1.4,4
2016/4/28 2:48,1.2,3,1.2,3,1.8,3
2016/4/28 2:49,1.3,4,1.3,4,1.3,4
2016/4/28 2:50,1.2,4,1.3,4,1.5,4
2016/4/28 2:51,1.2,4,1.2,4,1.3,4
2016/4/28 2:52,1.1,4,1.2,4,0.9,5
2016/4/28 2:53,1,4,1.1,4,1.4,3
2016/4/28 2:54,0.9,4,1,4,1.3,3
2016/4/28 2:55,0.9,3,0.9,4,1.4,1
2016/4/28 2:56,0.9,3,0.9,4,1.4,2
2016/4/28 2:57,0.9,3,0.9,4,1.8,1
2016/4/28 2:58,0.9,3,0.9,4,2.4,2
2016/4/28 2:59,0.9,3,0.9,4,2.2,3
2016/4/28 3:00,0.9,3,0.9,4,1.9,3
2016/4/28 3:01,1,2,1,4,2.2,3
2016/4/28 3:02,1.1,2,1.1,4,2.5,3
2016/4/28 3:03,1.1,2,1.1,2,2,2
2016/4/28 3:04,1.2,2,1.2,2,2,3
2016/4/28 3:05,1.2,3,1.2,2,2,3
2016/4/28 3:06,1.3,3,1.3,3,2.2,4
2016/4/28 3:07,1.4,3,1.4,3,2.5,3
2016/4/28 3:08,1.4,3,1.4,3,2.6,3
2016/4/28 3:09,1.5,3,1.5,3,2.9,3
2016/4/28 3:10,1.5,3,1.6,3,2.1,3
2016/4/28 3:11,1.5,3,1.5,3,1.9,2
2016/4/28 3:12,1.4,3,1.5,3,1.5,3
2016/4/28 3:13,1.4,3,1.4,3,1.5,4
2016/4/28 3:14,1.4,3,1.4,3,2.2,2
2016/4/28 3:15,1.3,3,1.4,3,1.5,2
2016/4/28 3:16,1.2,3,1.3,3,0.3,16
2016/4/28 3:17,1,3,1.2,3,0.9,6
2016/4/28 3:18,0.9,3,1,3,1,6
2016/4/28 3:19,0.8,4,0.9,3,1.6,13
2016/4/28 3:20,0.8,3,0.8,3,2,13
2016/4/28 3:21,0.8,4,0.8,3,1.9,12
2016/4/28 3:22,0.9,4,0.9,3,2,13
2016/4/28 3:23,1,2,1,3,2,13
2016/4/28 3:24,1.1,12,1.1,3,1.9,13
2016/4/28 3:25,1.1,12,1.1,3,1.8,12
2016/4/28 3:26,1.1,11,1.1,3,0.9,7
2016/4/28 3:27,1.2,11,1.2,11,1.3,5
2016/4/28 3:28,1.3,11,1.3,11,2.4,5
2016/4/28 3:29,1.4,11,1.4,11,3.2,5
2016/4/28 3:30,1.4,10,1.4,11,2.7,4
2016/4/28 3:31,1.5,7,1.5,7,2.9,3
2016/4/28 3:32,1.5,5,1.5,7,3,3
2016/4/28 3:33,1.6,5,1.6,5,3.1,3
2016/4/28 3:34,1.6,4,1.6,5,2.5,3
2016/4/28 3:35,1.6,4,1.6,5,2.9,1
2016/4/28 3:36,1.7,3,1.7,4,2.1,16
2016/4/28 3:37,1.8,3,1.8,3,1.8,16
2016/4/28 3:38,1.8,2,1.8,3,2.5,1
2016/4/28 3:39,1.6,2,1.8,3,1.8,2
2016/4/28 3:40,1.6,2,1.6,3,1.8,1
2016/4/28 3:41,1.5,2,1.6,3,2.1,2
2016/4/28 3:42,1.5,2,1.5,3,2.7,3
2016/4/28 3:43,1.3,2,1.4,3,1.9,3
2016/4/28 3:44,1.3,2,1.3,3,1.9,3
2016/4/28 3:45,1.3,2,1.3,3,2,3
2016/4/28 3:46,1.2,2,1.3,3,2,3
2016/4/28 3:47,1.2,2,1.2,3,1.4,4
2016/4/28 3:48,1.1,2,1.2,2,0.9,4
2016/4/28 3:49,1.1,2,1.1,2,1.1,16
2016/4/28 3:50,1,2,1.1,2,1.8,1
2016/4/28 3:51,1,2,1,2,1.6,1
2016/4/28 3:52,0.8,2,0.9,2,0.4,16
2016/4/28 3:53,0.7,2,0.8,1,0.1,15
2016/4/28 3:54,0.5,2,0.6,2,0.1,3
2016/4/28 3:55,0.4,2,0.5,2,0.1,3
2016/4/28 3:56,0.3,2,0.4,2,0.1,3
2016/4/28 3:57,0.2,2,0.3,2,0.1,3
2016/4/28 3:58,0.2,1,0.2,2,0.1,11
2016/4/28 3:59,0.2,1,0.2,2,0.1,11
2016/4/28 4:00,0.1,1,0.2,2,0,14
2016/4/28 4:01,0,16,0.1,2,0.1,14
2016/4/28 4:02,0,16,0,2,0,14
2016/4/28 4:03,0,15,0,2,0.1,14
2016/4/28 4:04,0,15,0,2,0.1,15
2016/4/28 4:05,0,14,0,2,0.8,1
2016/4/28 4:06,0.1,14,0.1,2,0.8,1
2016/4/28 4:07,0.1,14,0.1,2,0.3,16
2016/4/28 4:08,0.1,15,0.1,1,0.1,16
2016/4/28 4:09,0.1,15,0.1,1,0.1,12
2016/4/28 4:10,0.1,15,0.1,1,0.9,14
2016/4/28 4:11,0.2,15,0.2,15,1.3,14
2016/4/28 4:12,0.3,15,0.3,15,1,13
2016/4/28 4:13,0.4,15,0.4,15,1,14
2016/4/28 4:14,0.4,15,0.4,15,0.3,15
2016/4/28 4:15,0.4,14,0.4,15,0.1,13
2016/4/28 4:16,0.3,14,0.4,15,0.6,14
2016/4/28 4:17,0.4,14,0.4,15,1.1,15
2016/4/28 4:18,0.5,14,0.5,14,1.1,15
2016/4/28 4:19,0.5,14,0.5,14,0.8,16
2016/4/28 4:20,0.4,15,0.5,14,0.1,1
2016/4/28 4:21,0.3,15,0.4,14,0.1,4
2016/4/28 4:22,0.3,16,0.3,14,0.1,3
2016/4/28 4:23,0.2,16,0.2,14,0.1,3
2016/4/28 4:24,0.3,1,0.3,14,1,3
2016/4/28 4:25,0.4,2,0.4,14,1.4,4
2016/4/28 4:26,0.5,2,0.5,14,1.6,4
2016/4/28 4:27,0.5,3,0.5,14,1.6,3
2016/4/28 4:28,0.5,3,0.5,14,1.4,4
2016/4/28 4:29,0.6,4,0.6,3,1.9,3
2016/4/28 4:30,0.8,4,0.8,4,2.2,3
2016/4/28 4:31,1,3,1,3,2.4,3
2016/4/28 4:32,1.2,3,1.2,3,2.7,3
2016/4/28 4:33,1.5,3,1.5,3,2.7,3
2016/4/28 4:34,1.6,3,1.6,3,3.1,3
2016/4/28 4:35,1.7,3,1.7,3,2.7,3
2016/4/28 4:36,1.8,3,1.8,3,1.9,3
2016/4/28 4:37,1.8,3,1.8,3,1.5,3
2016/4/28 4:38,1.8,3,1.8,3,1.5,2
2016/4/28 4:39,1.8,3,1.8,3,1.9,2
2016/4/28 4:40,1.7,3,1.8,3,1.1,3
2016/4/28 4:41,1.5,3,1.6,3,0.8,2
2016/4/28 4:42,1.3,3,1.5,3,0.9,3
2016/4/28 4:43,1.1,3,1.3,3,0.9,4
2016/4/28 4:44,0.9,3,1.1,3,1.3,4
2016/4/28 4:45,0.8,3,0.9,3,0.8,3
2016/4/28 4:46,0.6,3,0.8,3,0.4,1
2016/4/28 4:47,0.6,3,0.6,3,0.5,2
2016/4/28 4:48,0.5,3,0.5,3,1,2
2016/4/28 4:49,0.4,3,0.5,3,1,7
2016/4/28 4:50,0.5,3,0.5,3,1.5,5
2016/4/28 4:51,0.6,4,0.6,3,1.3,5
2016/4/28 4:52,0.7,4,0.7,3,1.8,5
2016/4/28 4:53,0.7,4,0.7,3,1.5,4
2016/4/28 4:54,0.8,4,0.8,3,1.8,3
2016/4/28 4:55,0.9,4,0.9,4,1.8,3
2016/4/28 4:56,1,4,1,4,2.4,4
2016/4/28 4:57,1.2,4,1.2,4,2.2,4
2016/4/28 4:58,1.1,5,1.2,4,1.5,4
2016/4/28 4:59,1.1,5,1.1,4,0.9,6
2016/4/28 5:00,1,5,1.1,4,1.3,7
2016/4/28 5:01,1.1,5,1.1,4,1.5,6
2016/4/28 5:02,1,5,1.1,4,1.4,5
2016/4/28 5:03,1,4,1,4,1.4,4
2016/4/28 5:04,1,4,1,4,1.6,3
2016/4/28 5:05,1,4,1,4,2.4,3
2016/4/28 5:06,1,4,1,4,1.5,3
2016/4/28 5:07,1,4,1,4,2.2,3
2016/4/28 5:08,1,4,1,5,1.5,4
2016/4/28 5:09,1,3,1,5,1.4,3
2016/4/28 5:10,1.1,3,1.1,5,1.5,4
2016/4/28 5:11,1,3,1.1,5,1,16
2016/4/28 5:12,1,2,1,3,1.5,3
2016/4/28 5:13,1,2,1,3,1.3,2
2016/4/28 5:14,0.9,2,1,3,0.5,2
2016/4/28 5:15,0.8,2,0.9,3,0.8,1
2016/4/28 5:16,0.7,2,0.8,3,0.6,3
2016/4/28 5:17,0.6,2,0.7,3,2.5,3
2016/4/28 5:18,0.7,2,0.7,3,3,2
2016/4/28 5:19,0.8,2,0.8,3,2.7,3
2016/4/28 5:20,0.9,2,0.9,3,2.4,2
2016/4/28 5:21,0.9,2,0.9,3,2.1,1
2016/4/28 5:22,1,2,1,2,2,1
2016/4/28 5:23,1.2,2,1.2,2,3.1,1
2016/4/28 5:24,1.3,2,1.3,2,2.9,2
2016/4/28 5:25,1.4,2,1.4,2,2,3
2016/4/28 5:26,1.6,2,1.6,2,3.3,2
2016/4/28 5:27,1.6,2,1.6,2,2.6,2
2016/4/28 5:28,1.7,2,1.7,2,3.5,3
2016/4/28 5:29,1.9,2,1.9,2,3.6,3
2016/4/28 5:30,2,2,2,2,3.3,3
2016/4/28 5:31,2.1,3,2.1,2,2.6,4
2016/4/28 5:32,2.1,3,2.1,2,2.7,4
2016/4/28 5:33,2.2,3,2.2,3,3.1,2
2016/4/28 5:34,2.2,3,2.2,3,3.7,3
2016/4/28 5:35,2.3,3,2.3,3,3,2
2016/4/28 5:36,2.4,3,2.4,3,3.5,3
2016/4/28 5:37,2.4,3,2.4,3,3,3
2016/4/28 5:38,2.5,3,2.5,3,4.4,3
2016/4/28 5:39,2.4,3,2.5,3,3.1,3
2016/4/28 5:40,2.3,3,2.4,3,2.6,3
2016/4/28 5:41,2.3,3,2.3,3,4.2,2
2016/4/28 5:42,2.4,3,2.4,3,3.8,3
2016/4/28 5:43,2.4,2,2.4,3,3.5,2
2016/4/28 5:44,2.4,2,2.4,3,3.7,4
2016/4/28 5:45,2.4,2,2.4,3,3.1,2
2016/4/28 5:46,2.4,2,2.4,3,3.5,3
2016/4/28 5:47,2.5,3,2.5,3,3.8,3
2016/4/28 5:48,2.4,2,2.4,3,3.1,3
2016/4/28 5:49,2.4,2,2.4,3,3.5,3
2016/4/28 5:50,2.5,3,2.5,3,3.2,3
2016/4/28 5:51,2.4,3,2.5,3,3.3,3
2016/4/28 5:52,2.4,3,2.5,3,3,2
2016/4/28 5:53,2.4,3,2.4,3,3,3
2016/4/28 5:54,2.3,3,2.4,3,2.5,3
2016/4/28 5:55,2.4,3,2.4,3,3.1,3
2016/4/28 5:56,2.5,3,2.5,3,3.5,3
2016/4/28 5:57,2.5,3,2.5,3,3.8,3
2016/4/28 5:58,2.4,3,2.5,3,2.6,4
2016/4/28 5:59,2.4,3,2.4,3,3,3
2016/4/28 6:00,2.3,3,2.4,3,2.5,2
2016/4/28 6:01,2.2,3,2.3,3,3.2,1
2016/4/28 6:02,2.2,3,2.2,3,3.5,3
2016/4/28 6:03,2.2,2,2.2,3,3.8,2
2016/4/28 6:04,2.2,2,2.2,3,3,1
2016/4/28 6:05,2.1,2,2.2,3,3.1,2
2016/4/28 6:06,2,2,2.1,3,3.1,3
2016/4/28 6:07,1.9,2,2,3,3.3,2
2016/4/28 6:08,2,2,2,3,3.7,4
2016/4/28 6:09,1.9,2,2,3,3.2,2
2016/4/28 6:10,2.1,2,2.1,3,4.7,3
2016/4/28 6:11,2.2,2,2.2,3,5,4
2016/4/28 6:12,2.4,2,2.4,2,3.5,3
2016/4/28 6:13,2.4,3,2.4,2,3.5,3
2016/4/28 6:14,2.4,3,2.4,2,3.2,3
2016/4/28 6:15,2.4,3,2.4,2,2.7,2
2016/4/28 6:16,2.4,3,2.4,2,3,3
2016/4/28 6:17,2.4,3,2.5,3,2,3
2016/4/28 6:18,2.4,3,2.4,3,3.5,2
2016/4/28 6:19,2.4,3,2.4,3,3,2
2016/4/28 6:20,2.2,3,2.4,3,2.5,3
2016/4/28 6:21,2.1,2,2.2,3,2.6,2
2016/4/28 6:22,1.9,2,2.1,3,2.5,2
2016/4/28 6:23,1.8,2,1.9,3,2.1,3
2016/4/28 6:24,1.7,2,1.8,3,2.6,3
2016/4/28 6:25,1.7,2,1.7,3,3.2,2
2016/4/28 6:26,1.7,2,1.7,3,5.7,2
2016/4/28 6:27,1.8,2,1.8,3,4.2,3
2016/4/28 6:28,1.8,2,1.8,3,3.5,3
2016/4/28 6:29,1.9,2,1.9,3,3.9,3
2016/4/28 6:30,2,2,2,3,3.3,3
2016/4/28 6:31,2.1,2,2.1,2,3.8,3
2016/4/28 6:32,2.1,2,2.1,2,3,3
2016/4/28 6:33,2.2,2,2.2,2,2.6,3
2016/4/28 6:34,2.2,2,2.2,2,2.5,16
2016/4/28 6:35,2.3,2,2.3,2,3.5,3
2016/4/28 6:36,2.2,2,2.3,2,3.7,3
2016/4/28 6:37,2.3,2,2.3,2,4.3,3
2016/4/28 6:38,2.2,2,2.3,2,3.9,3
2016/4/28 6:39,2.2,2,2.2,2,3.9,4
2016/4/28 6:40,2.2,2,2.2,2,3.3,3
2016/4/28 6:41,2.2,2,2.2,2,3.6,3
2016/4/28 6:42,2.3,2,2.3,2,3.1,4
2016/4/28 6:43,2.2,3,2.3,2,2.5,2
2016/4/28 6:44,2.3,3,2.3,2,3.1,3
2016/4/28 6:45,2.3,3,2.3,2,3.2,3
2016/4/28 6:46,2.2,3,2.3,2,2.4,3
2016/4/28 6:47,2.1,3,2.2,2,3.5,3
2016/4/28 6:48,2.1,3,2.1,2,3.7,3
2016/4/28 6:49,2.1,3,2.1,2,3.9,3
2016/4/28 6:50,2.2,3,2.2,2,3.5,2
2016/4/28 6:51,2.1,3,2.2,2,3.3,3
2016/4/28 6:52,2.1,3,2.1,2,3.5,4
2016/4/28 6:53,2.2,3,2.2,3,2.4,3
2016/4/28 6:54,2.2,3,2.2,3,3,3
2016/4/28 6:55,2.2,3,2.2,3,3.2,3
2016/4/28 6:56,2.3,3,2.3,3,2.9,3
2016/4/28 6:57,2.3,3,2.3,3,2.2,3
2016/4/28 6:58,2.3,3,2.3,3,2.6,3
2016/4/28 6:59,2.2,3,2.3,3,3.2,3
2016/4/28 7:00,2.1,3,2.2,3,3,3
2016/4/28 7:01,2,3,2.1,3,3,3
2016/4/28 7:02,1.9,3,2,3,1.8,3
2016/4/28 7:03,1.9,3,1.9,3,3.5,4
2016/4/28 7:04,1.9,3,1.9,3,3,2
2016/4/28 7:05,1.8,2,1.9,3,2,2
2016/4/28 7:06,1.7,2,1.8,3,2.5,2
2016/4/28 7:07,1.8,2,1.8,3,2.5,4
2016/4/28 7:08,1.7,2,1.8,3,2.9,3
2016/4/28 7:09,1.8,2,1.8,3,2.5,3
2016/4/28 7:10,1.8,2,1.8,3,3,2
2016/4/28 7:11,1.7,2,1.8,3,2.7,3
2016/4/28 7:12,1.8,3,1.8,3,2,3
2016/4/28 7:13,1.7,3,1.8,3,2.1,3
2016/4/28 7:14,1.7,3,1.7,3,2,2
2016/4/28 7:15,1.7,3,1.7,2,2.1,3
2016/4/28 7:16,1.7,3,1.7,2,2,3
2016/4/28 7:17,1.6,3,1.7,2,2,3
2016/4/28 7:18,1.6,3,1.6,2,2.1,3
2016/4/28 7:19,1.5,3,1.6,2,1.5,3
2016/4/28 7:20,1.4,3,1.5,2,1.5,3
2016/4/28 7:21,1.4,3,1.4,3,1.5,5
2016/4/28 7:22,1.4,3,1.4,3,2.4,4
2016/4/28 7:23,1.6,3,1.6,3,3.6,4
2016/4/28 7:24,1.6,3,1.6,3,2.9,2
2016/4/28 7:25,1.6,4,1.6,3,3.1,4
2016/4/28 7:26,1.7,4,1.7,3,3.1,4
2016/4/28 7:27,1.7,4,1.7,4,2.4,4
2016/4/28 7:28,1.7,4,1.7,4,2.1,3
2016/4/28 7:29,1.7,4,1.7,4,1.6,3
2016/4/28 7:30,1.7,4,1.7,4,1.8,4
2016/4/28 7:31,1.7,4,1.7,4,1.8,5
2016/4/28 7:32,1.6,4,1.7,4,1.1,4
2016/4/28 7:33,1.4,4,1.6,4,0.8,4
2016/4/28 7:34,1.2,4,1.3,4,0.3,6
2016/4/28 7:35,1,4,1.2,4,0.4,6
2016/4/28 7:36,0.8,4,1,4,0.1,6
2016/4/28 7:37,0.6,5,0.7,4,0.5,6
2016/4/28 7:38,0.5,5,0.6,4,0.9,6
2016/4/28 7:39,0.4,5,0.4,4,0.9,6
2016/4/28 7:40,0.4,5,0.4,4,1,6
2016/4/28 7:41,0.3,6,0.3,4,0.3,6
2016/4/28 7:42,0.2,6,0.2,4,0.8,6
2016/4/28 7:43,0.2,6,0.2,4,0.6,6
2016/4/28 7:44,0.3,6,0.3,4,0.9,6
2016/4/28 7:45,0.3,6,0.3,4,0.6,6
2016/4/28 7:46,0.3,6,0.3,5,1.1,6
2016/4/28 7:47,0.4,6,0.4,5,1.5,6
2016/4/28 7:48,0.5,6,0.5,6,2.4,7
2016/4/28 7:49,0.6,6,0.6,6,1.9,7
2016/4/28 7:50,0.6,6,0.6,6,1.6,5
2016/4/28 7:51,0.7,6,0.7,6,1.5,6
2016/4/28 7:52,0.8,6,0.8,6,1.8,6
2016/4/28 7:53,0.8,6,0.8,6,1.4,6
2016/4/28 7:54,0.8,6,0.8,6,1.1,7
2016/4/28 7:55,0.8,6,0.8,6,0.3,7
2016/4/28 7:56,0.8,7,0.8,6,1.3,6
2016/4/28 7:57,0.8,7,0.8,6,0.9,8
2016/4/28 7:58,0.7,7,0.8,6,0.9,8
2016/4/28 7:59,0.7,7,0.7,6,0.8,8
2016/4/28 8:00,0.6,7,0.6,6,0.4,7
2016/4/28 8:01,0.5,7,0.5,6,0.3,7
2016/4/28 8:02,0.4,7,0.5,6,0.5,7
2016/4/28 8:03,0.3,7,0.4,6,0,7
2016/4/28 8:04,0.3,7,0.3,6,0.1,7
2016/4/28 8:05,0.3,7,0.3,6,0.9,3
2016/4/28 8:06,0.2,7,0.3,7,0.8,4
2016/4/28 8:07,0.2,7,0.2,7,0.5,7
2016/4/28 8:08,0.2,7,0.2,7,0.8,7
2016/4/28 8:09,0.1,7,0.1,7,0.4,7
2016/4/28 8:10,0.1,7,0.1,7,0.8,7
2016/4/28 8:11,0.1,7,0.1,7,0.9,5
2016/4/28 8:12,0.2,7,0.2,7,1.1,3
2016/4/28 8:13,0.2,7,0.2,7,0.9,5
2016/4/28 8:14,0.3,7,0.3,7,0.9,5
2016/4/28 8:15,0.3,6,0.3,7,0.9,4
2016/4/28 8:16,0.3,6,0.3,7,1,6
2016/4/28 8:17,0.4,6,0.4,6,1,5
2016/4/28 8:18,0.4,6,0.4,6,1,5
2016/4/28 8:19,0.5,6,0.5,6,0.8,7
2016/4/28 8:20,0.5,6,0.5,6,0.5,7
2016/4/28 8:21,0.5,6,0.5,6,1.1,8
2016/4/28 8:22,0.6,6,0.6,6,1.3,8
2016/4/28 8:23,0.5,6,0.6,6,1.1,8
2016/4/28 8:24,0.6,7,0.6,6,1,8
2016/4/28 8:25,0.6,7,0.6,6,1.3,8
2016/4/28 8:26,0.6,7,0.6,6,1.1,8
2016/4/28 8:27,0.6,7,0.6,6,1.1,8
2016/4/28 8:28,0.6,8,0.6,6,1.5,9
2016/4/28 8:29,0.6,8,0.6,6,0.9,9
2016/4/28 8:30,0.7,8,0.7,8,1.1,9
2016/4/28 8:31,0.7,8,0.7,8,1.3,9
2016/4/28 8:32,0.7,8,0.7,8,1.4,9
2016/4/28 8:33,0.8,8,0.8,8,1.4,9
2016/4/28 8:34,0.9,9,0.9,8,2.4,9
2016/4/28 8:35,0.9,9,0.9,8,2,9
2016/4/28 8:36,1,9,1,9,1.9,9
2016/4/28 8:37,1,9,1,9,1.8,9
2016/4/28 8:38,0.9,9,1,9,0.4,10
2016/4/28 8:39,0.9,9,0.9,9,1.6,11
2016/4/28 8:40,0.9,9,0.9,9,0.3,11
2016/4/28 8:41,0.9,9,0.9,9,1.8,8
2016/4/28 8:42,0.9,9,0.9,9,1.8,8
2016/4/28 8:43,0.9,9,0.9,9,1.6,8
2016/4/28 8:44,0.8,9,0.9,9,0.5,10
2016/4/28 8:45,0.7,9,0.8,9,1.5,9
2016/4/28 8:46,0.6,10,0.7,9,0.3,11
2016/4/28 8:47,0.5,10,0.6,9,0.3,12
2016/4/28 8:48,0.7,9,0.7,9,2.5,8
2016/4/28 8:49,0.8,9,0.8,9,2,8
2016/4/28 8:50,0.8,9,0.8,9,1.5,7
2016/4/28 8:51,0.8,9,0.9,9,1.5,9
2016/4/28 8:52,0.8,9,0.8,9,0.8,8
2016/4/28 8:53,0.8,10,0.8,9,2.1,10
2016/4/28 8:54,0.8,9,0.8,9,1.8,10
2016/4/28 8:55,0.9,9,0.9,9,2.1,9
2016/4/28 8:56,1,9,1,9,2.1,9
2016/4/28 8:57,1.1,9,1.1,9,2.1,8
2016/4/28 8:58,1.1,9,1.1,9,2.1,8
2016/4/28 8:59,1.1,9,1.1,9,1.1,8
2016/4/28 9:00,1,9,1.1,9,0.6,9
2016/4/28 9:01,1,9,1,9,0.8,9
2016/4/28 9:02,0.9,9,0.9,9,0.3,9
2016/4/28 9:03,0.8,9,0.9,9,0.6,9
2016/4/28 9:04,0.8,9,0.8,9,1,9
2016/4/28 9:05,0.7,9,0.8,9,1,9
2016/4/28 9:06,0.6,8,0.7,9,1,8
2016/4/28 9:07,0.6,8,0.6,9,1.3,7
2016/4/28 9:08,0.5,8,0.6,9,0.8,6
2016/4/28 9:09,0.5,8,0.5,9,1.4,9
2016/4/28 9:10,0.4,9,0.5,9,0.8,11
2016/4/28 9:11,0.5,9,0.5,9,1.1,10
2016/4/28 9:12,0.5,9,0.5,9,1.4,10
2016/4/28 9:13,0.6,9,0.6,9,1.9,10
2016/4/28 9:14,0.7,9,0.7,9,1.5,9
2016/4/28 9:15,0.7,9,0.7,9,1.3,8
2016/4/28 9:16,0.6,9,0.7,9,0.4,12
2016/4/28 9:17,0.6,10,0.6,9,0.5,8
2016/4/28 9:18,0.6,9,0.6,9,1.4,8
2016/4/28 9:19,0.7,9,0.7,9,1.6,8
2016/4/28 9:20,0.7,9,0.7,9,1.5,9
2016/4/28 9:21,0.7,9,0.7,9,1.5,9
2016/4/28 9:22,0.7,9,0.7,9,1.5,8
2016/4/28 9:23,0.7,9,0.7,9,1.6,9
2016/4/28 9:24,0.7,9,0.7,9,1.6,9
2016/4/28 9:25,0.7,9,0.7,9,1.5,9
2016/4/28 9:26,0.8,9,0.8,9,1,9
2016/4/28 9:27,0.9,9,0.9,9,1.3,9
2016/4/28 9:28,0.9,9,0.9,9,1.3,9
2016/4/28 9:29,0.8,9,0.8,9,1.4,9
2016/4/28 9:30,0.8,9,0.9,9,1.4,9
2016/4/28 9:31,0.9,9,0.9,9,1.5,9
2016/4/28 9:32,0.9,9,0.9,9,1.6,9
2016/4/28 9:33,0.9,9,0.9,9,1.3,9
2016/4/28 9:34,0.9,9,0.9,9,1.1,9
2016/4/28 9:35,0.8,9,0.9,9,1.6,9
2016/4/28 9:36,0.8,9,0.8,9,2,9
2016/4/28 9:37,0.8,9,0.8,9,1.8,8
2016/4/28 9:38,0.8,9,0.8,9,2.1,10
2016/4/28 9:39,0.9,9,0.9,9,1.9,9
2016/4/28 9:40,0.9,9,0.9,9,1.6,10
2016/4/28 9:41,0.8,9,0.9,9,0.9,8
2016/4/28 9:42,0.8,9,0.8,9,1.4,9
2016/4/28 9:43,0.9,9,0.9,9,2.1,8
2016/4/28 9:44,0.9,9,0.9,9,2.1,9
2016/4/28 9:45,0.9,9,0.9,9,1.8,10
2016/4/28 9:46,1,9,1,9,1.6,9
2016/4/28 9:47,0.9,9,0.9,9,1.3,10
2016/4/28 9:48,0.9,9,0.9,9,1.3,9
2016/4/28 9:49,0.8,9,0.9,9,1.1,10
2016/4/28 9:50,0.8,9,0.8,9,1.1,10
2016/4/28 9:51,0.9,9,0.9,9,1.9,8
2016/4/28 9:52,0.9,9,0.9,9,1.5,8
2016/4/28 9:53,0.8,9,0.9,9,1.3,9
2016/4/28 9:54,0.7,9,0.8,9,0.8,9
2016/4/28 9:55,0.8,9,0.8,9,1.5,8
2016/4/28 9:56,0.7,9,0.8,9,1.6,9
2016/4/28 9:57,0.8,9,0.8,9,1.5,8
2016/4/28 9:58,0.8,9,0.8,9,1.9,8
2016/4/28 9:59,0.8,9,0.8,9,1.3,9
2016/4/28 10:00,0.8,9,0.8,9,1.3,9
2016/4/28 10:01,0.7,9,0.8,9,1,10
2016/4/28 10:02,0.6,9,0.7,9,0.9,13
2016/4/28 10:03,0.7,9,0.7,9,1.8,10
2016/4/28 10:04,0.8,10,0.8,9,1.5,10
2016/4/28 10:05,0.8,10,0.8,9,1.6,11
2016/4/28 10:06,0.8,10,0.8,9,1.8,11
2016/4/28 10:07,0.8,10,0.8,9,1.5,10
2016/4/28 10:08,0.8,11,0.9,10,1.5,9
2016/4/28 10:09,0.8,11,0.8,10,1,13
2016/4/28 10:10,0.8,11,0.9,10,0.8,11
2016/4/28 10:11,0.9,11,0.9,10,1.6,10
2016/4/28 10:12,1,11,1,11,1.6,13
2016/4/28 10:13,0.9,11,0.9,11,1.5,8
2016/4/28 10:14,0.9,11,0.9,11,1.4,10
2016/4/28 10:15,0.8,10,0.9,11,1.9,9
2016/4/28 10:16,0.8,10,0.8,11,2,8
2016/4/28 10:17,0.9,10,0.9,11,2.1,9
2016/4/28 10:18,0.9,10,0.9,11,2.4,8
2016/4/28 10:19,1,10,1,11,1.9,9
2016/4/28 10:20,1,9,1,11,1.8,9
2016/4/28 10:21,1,9,1,11,2.1,9
2016/4/28 10:22,1,9,1,10,1.8,8
2016/4/28 10:23,1,9,1.1,9,2,10
2016/4/28 10:24,1,10,1,9,0.9,10
2016/4/28 10:25,1,10,1.1,9,1.3,10
2016/4/28 10:26,1.1,10,1.1,9,2.1,11
2016/4/28 10:27,1.1,10,1.1,9,2.4,11
2016/4/28 10:28,1,10,1.1,9,2.4,10
2016/4/28 10:29,1.1,10,1.1,9,2.2,10
2016/4/28 10:30,1.2,11,1.2,10,2.2,10
2016/4/28 10:31,1.2,11,1.2,10,1.9,11
2016/4/28 10:32,1.2,11,1.2,10,1.6,10
2016/4/28 10:33,1.2,11,1.2,10,1.1,11
2016/4/28 10:34,1.3,11,1.3,11,1.8,10
2016/4/28 10:35,1.3,11,1.3,11,1.8,11
2016/4/28 10:36,1.3,11,1.3,11,1.4,10
2016/4/28 10:37,1.2,11,1.3,11,1.3,11
2016/4/28 10:38,1.1,11,1.2,11,1.1,10
2016/4/28 10:39,1.1,11,1.1,11,1.9,11
2016/4/28 10:40,1,11,1.1,11,1.4,11
2016/4/28 10:41,1,11,1,11,1.5,11
2016/4/28 10:42,1,11,1,11,1.4,11
2016/4/28 10:43,1,11,1,11,1,11
2016/4/28 10:44,0.9,11,0.9,11,1,13
2016/4/28 10:45,0.8,11,0.9,11,0.6,13
2016/4/28 10:46,0.8,11,0.8,11,1.6,9
2016/4/28 10:47,0.8,11,0.8,11,1.3,8
2016/4/28 10:48,0.8,11,0.8,11,1.1,10
2016/4/28 10:49,0.7,10,0.8,11,0.8,8
2016/4/28 10:50,0.6,10,0.7,11,0.8,9
2016/4/28 10:51,0.5,10,0.6,11,0.5,8
2016/4/28 10:52,0.4,9,0.5,11,1.1,7
2016/4/28 10:53,0.5,9,0.5,11,1.6,8
2016/4/28 10:54,0.5,9,0.5,11,1.5,8
2016/4/28 10:55,0.6,9,0.6,11,1.3,7
2016/4/28 10:56,0.5,9,0.6,11,1.1,8
2016/4/28 10:57,0.6,8,0.6,11,1.3,8
2016/4/28 10:58,0.5,9,0.6,11,0.5,8
2016/4/28 10:59,0.6,8,0.6,10,1.3,7
2016/4/28 11:00,0.7,8,0.7,8,1.4,6
2016/4/28 11:01,0.7,8,0.7,8,1.5,9
2016/4/28 11:02,0.8,8,0.8,8,1.4,8
2016/4/28 11:03,0.8,8,0.8,8,1.3,8
2016/4/28 11:04,0.8,8,0.8,8,1,9
2016/4/28 11:05,0.8,9,0.8,8,1.3,10
2016/4/28 11:06,0.7,9,0.8,8,1.6,9
2016/4/28 11:07,0.8,9,0.8,8,2.2,9
2016/4/28 11:08,0.8,9,0.8,8,1.9,9
2016/4/28 11:09,0.8,9,0.8,8,1.6,10
2016/4/28 11:10,0.8,9,0.9,9,1.8,9
2016/4/28 11:11,0.8,9,0.8,9,0.4,9
2016/4/28 11:12,0.7,9,0.7,9,0.4,12
2016/4/28 11:13,0.7,10,0.7,9,1.5,9
2016/4/28 11:14,0.7,10,0.7,9,1.8,12
2016/4/28 11:15,0.8,10,0.8,9,1.6,11
2016/4/28 11:16,0.8,11,0.8,9,1.8,12
2016/4/28 11:17,0.8,11,0.8,9,1.6,10
2016/4/28 11:18,0.8,11,0.8,9,1.3,12
2016/4/28 11:19,0.8,11,0.8,9,1.4,14
2016/4/28 11:20,0.8,12,0.8,9,1.9,12
2016/4/28 11:21,0.9,12,0.9,12,1.4,13
2016/4/28 11:22,1,12,1,12,1.3,13
2016/4/28 11:23,0.9,12,1,12,0.8,10
2016/4/28 11:24,0.8,12,0.9,12,0.8,10
2016/4/28 11:25,0.7,12,0.8,12,0.4,12
2016/4/28 11:26,0.7,12,0.7,12,1.6,10
2016/4/28 11:27,0.7,12,0.7,12,1.8,9
2016/4/28 11:28,0.8,11,0.8,12,2.5,10
2016/4/28 11:29,0.8,11,0.8,12,2.1,10
2016/4/28 11:30,0.7,11,0.8,12,2,10
2016/4/28 11:31,0.8,10,0.8,12,2.1,10
2016/4/28 11:32,0.8,10,0.9,12,2.4,10
2016/4/28 11:33,0.9,10,0.9,12,1.9,9
2016/4/28 11:34,1,10,1,10,1.6,11
2016/4/28 11:35,1.1,10,1.1,10,1.8,9
2016/4/28 11:36,1.2,10,1.2,10,2.4,9
2016/4/28 11:37,1.2,10,1.2,10,2.1,8
2016/4/28 11:38,1.2,10,1.2,10,2.2,9
2016/4/28 11:39,1.3,9,1.3,9,2.4,9
2016/4/28 11:40,1.3,9,1.3,9,2.1,9